Regional Weather Roundup
Issued by NWS Columbia, SC

Home | Current Version | Previous Version | Text Only | Print | Product List | Glossary On
Versions: 1 2 3 4 5 6 7 8 9 10 11 12 13 14 15 16 17 18 19 20 21 22 23 24 25 26 27 28
000
ASUS42 KCAE 241710
RWRCAE
REGIONAL WEATHER ROUNDUP
NATIONAL WEATHER SERVICE COLUMBIA SC
100 PM EDT SUN JUL 24 2016

NOTE: "FAIR" INDICATES FEW OR NO CLOUDS BELOW 12,000 FEET WITH NO
SIGNIFICANT WEATHER AND/OR OBSTRUCTIONS TO VISIBILITY.

NOT ALL STATIONS ARE QUALITY CONTROLLED BY THE NATIONAL
WEATHER SERVICE. USE DATA WITH CAUTION...ESPECIALLY
DEWPOINT OBSERVATIONS.

SCZ001>056-GAZ040-063>065-077-241800-
...UPSTATE SOUTH CAROLINA...

CITY           SKY/WX    TMP DP  RH WIND       PRES   REMARKS
ANDERSON       SUNNY     93  67  42 W6        30.06F HX  96
LIBERTY        SUNNY     89  71  55 S5        30.06F HX  95
SPARTANBURG    SUNNY     90  68  48 SW7       30.05F
CLEMSON        SUNNY     94  67  41 VRB7      30.07F HX  97
GREENVILLE     SUNNY     91  67  44 VRB5      30.08F
GREENWOOD      SUNNY     93  71  48 VRB5      30.07F HX 100
GREER          SUNNY     90  67  46 W7        30.05F
ROCK HILL      SUNNY     92  71  50 VRB7      30.06F HX  98
CHESTER        SUNNY     90  68  48 CALM      30.07S
LAURENS        MOSUNNY   90  72  55 SW7       30.06S HX  96


...CENTRAL SOUTH CAROLINA...

CITY           SKY/WX    TMP DP  RH WIND       PRES   REMARKS
COLUMBIA APT   PTSUNNY   96  70  42 VRB3      30.03F HX 102
COLUMBIA OWENS MOSUNNY   95  72  47 S7          N/A  HX 103
MCENTIRE ANGB  MOSUNNY   94  72  49 VRB1      30.04F HX 102
ORANGEBURG     SUNNY     93  72  50 W6        30.05S HX 101
SUMTER SHAW    MOSUNNY   92  73  53 SW6       30.02F HAZE    HX 101
NEWBERRY       MOSUNNY   91  73  55 SW6       30.08F HX 100
AIKEN          FAIR      91  70  49 S5        30.08F HX  97
MANNING        FAIR      90  72  55 W6        30.04F HX  96
LANCASTER      MOSUNNY   91  70  49 W5        30.06S HX  97
WINNSBORO      SUNNY     91  72  52 W3        30.06S HX  98


...EASTERN AND COASTAL SOUTH CAROLINA...

CITY           SKY/WX    TMP DP  RH WIND       PRES   REMARKS
MYRTLE BEACH   MOSUNNY   90  72  55 S14       30.06S HX  96
N MYRTLE BCH   SUNNY     87  77  72 S13       30.04S HX  99
CONWAY         FAIR      90  75  62 CALM      30.04S HX 100
MARION           N/A     88  73  62 CALM      30.04S HX  96
HARTSVILLE     PTSUNNY   90  72  55 S3        30.04S HX  96
FLORENCE       SUNNY     92  74  55 W8        30.04S HX 101
DARLINGTON     SUNNY     91  76  61 SW5       30.05S HX 103
CHARLESTON APT CLOUDY    92  75  57 W7        30.04F HX 103
MOUNT PLEASANT FAIR      91  75  59 SW6       30.05S HX 102
WALTERBORO     MOSUNNY   93  70  46 CALM      30.06S HX  99
BEAUFORT       MOSUNNY   95  72  47 CALM      30.04F HX 103


...EASTERN GEORGIA...

CITY           SKY/WX    TMP DP  RH WIND       PRES   REMARKS
AUGUSTA BUSH F MOSUNNY   95  69  42 CALM      30.02F HX 100
AUGUSTA DANIEL PTSUNNY   92  71  50 CALM      30.05F HX  98
THOMSON        SUNNY     96  73  47 CALM      30.09F HX 105
WASHINGTON     FAIR      97  77  52 CALM      30.06F HX 112
CLAXTON        FAIR      94  74  52 S5        30.04F HX 103
STATESBORO     MOSUNNY   93  74  54 CALM      30.04F HX 104
SAVANNAH       MOSUNNY   92  70  48 W7        30.04F HX  97


...SOUTHERN NORTH CAROLINA...

CITY           SKY/WX    TMP DP  RH WIND       PRES   REMARKS
CHARLOTTE      SUNNY     92  70  48 SW6       30.06S HX  97
MONROE         SUNNY     91  70  49 VRB6      30.05S HX  96
WADESBORO      SUNNY     93  68  44 SW6       30.04S HX  98
ROCKINGHAM     SUNNY     90  75  61 W6        30.04F HX  99
RUTHERFORDTON    N/A     89  73  60 CALM      30.08F HX  97
ASHEVILLE      SUNNY     86  66  51 MISG      30.14F

$$




USA.gov is the U.S. government's official web portal to all federal, state and local government web resources and services.